Other Public Products
Issued by NWS Grand Forks, ND

Home | Current Version | Previous Version | Text Only | Print | Product List | Glossary On
Versions: 1 2 3 4 5 6 7 8 9 10 11 12 13 14 15 16 17 18 19 20 21 22 23 24 25 26 27 28 29 30 31 32 33 34 35 36 37 38 39 40 41 42 43 44 45 46 47 48 49 50
000
FPUS83 KFGF 080210
OPUFGF
PRAIRIE TO PINES WEATHER ROUNDUP
NATIONAL WEATHER SERVICE EASTERN NORTH DAKOTA/GRAND FORKS ND
800 PM CST WED DEC 07 2016

 **SATELLITE DATA USED TO AUGMENT SKY COVER AT AUTOMATED STATIONS**
 *****  WEATHER ACROSS EASTERN NORTH DAKOTA  *****

CITY           SKY/WX    TMP DP  RH WIND       PRES   REMARKS
GRAND FORKS    LGT SNOW  20  17  88 NW23G30   30.15R BLWGSNOWWCI   3
GRAND FORKS AF LGT SNOW  19  15  82 N21G30    30.17R WCI   3
GRAND CITY NWS NOT AVBL
BUXTON         NOT AVBL
DEVILS LAKE    LGT SNOW  12   9  85 NW22      30.24R FOG     WCI  -7
FARGO          LGT SNOW  17  12  80 NW21      30.16R WCI   0
WAHPETON ARPT  CLOUDY    14   9  79 W22       30.19R WCI  -4
$$

 *****  WEATHER ACROSS CENTRAL AND WESTERN NORTH DAKOTA  *****

CITY           SKY/WX    TMP DP  RH WIND       PRES   REMARKS
JAMESTOWN      LGT SNOW   8   4  83 NW31G38   30.25R VSB 1   WCI -15
BISMARCK       MIX PCPN   4  -1  80 NW23G33   30.43R WCI -18
MINOT          LGT SNOW   6   1  80 W31G40    30.38R WCI -18
MINOT AFB      DRIZZLE    5   0  78 NW29      30.38R WCI -19
GARRISON         N/A      3  -1  83 NW28G36   30.39R WCI -21
WILLISTON      CLOUDY     2  -5  72 W13       30.55R WCI -15
DICKINSON      CLOUDY    -1  -7  75 W26G33    30.40R WCI -26
HETTINGER      CLEAR      0  -6  76 W23       30.43R WCI -23
$$

 *****  OTHER OBSERVATIONS NORTHEAST NORTH DAKOTA  *****

CITY           SKY/WX    TMP DP  RH WIND       PRES   REMARKS
WALHALLA       LGT SNOW  18  18 100 NW25G31   30.21R WCI  -1
LANGDON        LGT SNOW  16  14  93 NW22G29   30.18R WCI  -2
CAVALIER       LGT SNOW  19  18  93 NW23G29   30.19R VSB 1   WCI   2
GRAFTON        MOCLDY    19  18  93 NW22G30   30.18R FOG     WCI   3
CANDO          CLOUDY    14  10  85 NW30      30.28R WCI  -7
FORT TOTTEN      N/A     11  10  95 NW14      29.95S WCI  -5
ROLLA          LGT SNOW  10   9  92 NW35G47   30.25R VSB 3/4 WCI -13
RUGBY          LGT SNOW   7   5  92 NW24G30   30.31R VSB 1   WCI -15
 ***** THE ABOVE OBSERVATIONS ARE NON NWS ARE NOT QUALITY
        CONTROLLED AND MAY MIS-REPORT RAIN FOR SNOW...
$$

 *****  OTHER OBSERVATIONS SOUTHEAST NORTH DAKOTA *****

CITY           SKY/WX    TMP DP  RH WIND       PRES   REMARKS
COOPERSTOWN    LGT SNOW  12  10  92 NW25G35   30.20R WCI  -8
VALLEY CITY    LGT SNOW   9   7  92 NW29G40   30.23R WCI -14
OAKES          NOT AVBL
GWINNER        CLOUDY    14  10  85 W24G33    30.23R WCI  -5
SHEYENNE NWR     N/A     11   5  77 NW18      29.95S WCI  -7
BUFFALO        NOT AVBL
WYNDMERE       NOT AVBL
 ***** THE ABOVE OBSERVATIONS ARE NON NWS ARE NOT QUALITY
       CONTROLLED AND MAY MIS-REPORT RAIN FOR SNOW...
$$

  *****  WEATHER ACROSS NORTHERN MINNESOTA  *****

CITY           SKY/WX    TMP DP  RH WIND       PRES   REMARKS
FLAG ISLAND    CLOUDY    21  18  86 N24       30.01R WCI   4
WARROAD        CLOUDY    19  18  93 NW12G17   30.04R WCI   7
ROSEAU         LGT SNOW  21  16  79 NW14      30.06R WCI   8
HALLOCK        CLOUDY    21  19  93 NW21G30   30.13R WCI   6
THF RVR FALLS  LGT SNOW  20  18  92 NW20      30.08R FOG     WCI   4
HALSTAD          N/A     18  14  85 NW22        N/A  WCI   1
FOSSTON        LGT SNOW  18  16  93 NW14      30.04R WCI   4
BAUDETTE       LGT SNOW  22  18  85 N20G26    29.97R FOG     WCI   7
WASKISH        LGT SNOW  23  19  86 NW12G18   29.97R WCI  12
CROOKSTON      LGT SNOW  21  19  93 N26       30.12R WCI   4
$$
  *****  WEATHER ACROSS CENTRAL AND WEST MINNESOTA  *****

CITY           SKY/WX    TMP DP  RH WIND       PRES   REMARKS
BEMIDJI        LGT SNOW  20  17  89 W16       29.97R WCI   6
PARK RAPIDS    FLURRIES  17  10  74 W15       30.00R WCI   2
WADENA         LGT SNOW  12  10  92 W13G21    30.05R WCI  -3
DETROIT LAKES  LGT SNOW  18  14  86 NW22G31   30.07R WCI   0
MOORHEAD       MIX PCPN  16  12  86 NW23G31   30.15R WCI  -2
FERGUS FALLS   LGT SNOW  12   9  85 NW23G29   30.19S WCI  -7
ELBOW LAKE     LGT SNOW  11   9  89 NW16G25   30.16R WCI  -5
MORRIS MN      LGT SNOW  12   9  85 W24G30    30.17S VSB 1   WCI  -8
STAPLES        LGT SNOW  12  10  92 W16       30.04R WCI  -4
WHEATON        LGT SNOW  14  10  85 W23G31    30.22R WCI  -5
$$
  *****  WEATHER ELSEWHERE ACROSS MINNESOTA  *****

CITY           SKY/WX    TMP DP  RH WIND       PRES   REMARKS
DULUTH         LGT SNOW  16  12  84 W21       29.87S FOG     WCI  -1
INTRNTL FALLS  LGT SNOW  23  18  81 NW12      29.91R WCI  12
ELY            LGT SNOW  19  18  93 W6        29.82R WCI  11
CLOQUET        LGT SNOW  16  10  79 W14G20    29.91R WCI   1
BRAINERD       CLOUDY    16  10  77 W16G26    30.01R WCI   1
HIBBING        LGT SNOW  17  14  88 W7        29.88R FOG     WCI   8
ALEXANDRIA     LGT SNOW  12   8  84 W22G30    30.11R FOG     WCI  -7
SAINT CLOUD    FLURRIES  15   8  73 W20G28    30.09R WCI  -2
MINNEAPOLIS    LGT SNOW  16   8  71 W18G29    30.12R WCI   0
$$

  *****  WEATHER ACROSS SOUTH DAKOTA  *****

CITY           SKY/WX    TMP DP  RH WIND       PRES   REMARKS
SIOUX FALLS    PTCLDY    12   4  70 NW20G33   30.31R WCI  -6
BROOKINGS      FLURRIES   7   2  80 NW28G39   30.24S WCI -16
WATERTOWN      CLOUDY     6   1  80 W22G31    30.24R WCI -15
HURON          LGT SNOW   9   3  77 NW26G32   30.39R WCI -13
SISSETON         N/A     11   5  77 NW24G32   30.21S WCI  -9
ABERDEEN       LGT SNOW   8   2  76 NW25G31   30.33S WCI -13
MITCHELL       CLOUDY    12   2  64 NW21G33   30.41R WCI  -7
PIERRE         MOCLDY     9   1  70 NW33G39   30.45R WCI -15
MOBRIDGE       MIX PCPN   5  -3  69 NW30G40   30.39R WCI -19
RAPID CITY     CLEAR      0  -7  72 N9        30.44R WCI -15
$$

  *****  SOME WEATHER IN NEARBY STATES *****

CITY           SKY/WX    TMP DP  RH WIND       PRES   REMARKS
GLASGOW MT     CLEAR      0  -8  69 NW12      30.59R WCI -17
GREAT FALLS MT CLOUDY     1  -5  75 CALM      30.51R
CHEYENNE WY    CLOUDY    -7 -11  83 W5        30.26R WCI -18
SCOTTSBLUFF NE CLEAR      4  -5  66 W9        30.42R WCI -10
OMAHA NE       CLEAR     20   6  55 NW13      30.41R WCI   7
DES MOINES IA  PTCLDY    21   8  57 NW22      30.32R WCI   5
DAVENPORT IA   CLOUDY    23  14  68 W28G35    30.22S WCI   6
CHICAGO IL     CLOUDY    23  15  71 W23G33    30.13R WCI   7
EAU CLAIRE WI  CLOUDY    18  10  71 W18G24    30.04S WCI   2
LA CROSSE WI   CLOUDY    22  11  62 W20       30.12S WCI   7
$$

  *****  SOME NATIONAL WEATHER *****

CITY           SKY/WX    TMP DP  RH WIND       PRES   REMARKS
LA GUARDIA NY  CLOUDY    47  35  63 W3        30.03S
RALEIGH NC     MOCLDY    45  42  89 CALM      30.08R
ATLANTA GA     PTCLDY    47  44  90 W8        30.10R
NEW ORLEANS LA CLOUDY    61  58  90 NE5       30.14R
OKLAHOMA CITY  MOCLDY    33  23  66 N16G23    30.36R WCI  23
ALBUQUERQUE NM CLOUDY    37  17  44 SE5       30.16R
SALT LAKE CITY PTCLDY    22  13  68 N5        30.32R WCI  16
LOS ANGELES CA MOCLDY    58  51  78 W8        30.12R
BOISE ID       CLEAR     21  14  74 SE7       30.36F WCI  12
SEATTLE WA     PTCLDY    33  16  49 E14       30.33F WCI  23
$$

*** WEATHER ACROSS MANITOBA...SASKATCHEWAN AND ONTARIO ***
                ***ONTARIO***

CITY           SKY/WX    TMP DP  RH WIND       PRES   REMARKS
GERALDTON      LGT SNOW  23  19  86 NW10      29.61R DRFTSNOWWCI  12
THUNDER BAY    FLURRIES  25  19  80 W9        29.74R WCI  15
SIOUX LOOKOUT  LGT SNOW  21  18  86 N9G18     29.86R DRFTSNOWWCI  11
TORONTO        MOCLDY    32  27  80 SW13      29.93S WCI  22
BIG TROUT LK   LGT SNOW  23  21  93 N14       29.93  WCI  11
PICKLE LAKE    LGT SNOW  21  18  86 N12G20    29.82R DRFTSNOWWCI   9
DRYDEN         LGT SNOW  21  19  93 N8        29.89R WCI  12
KENORA         LGT SNOW  18  16  93 N14G22    29.98R DRFTSNOWWCI   4
$$
                *** MANITOBA***

CITY           SKY/WX    TMP DP  RH WIND       PRES   REMARKS
BRANDON        CLOUDY    12   7  79 NW20G25   30.31R WCI  -6
DAUPHIN        FLURRIES  16   9  73 N20G25    30.37R WCI  -1
ISLAND LAKE    NOT AVBL
PILOT MOUND      N/A     14  12  92 NW20        N/A  WCI  -3
THE PAS        FLURRIES  10   3  72 N16G25    30.47R WCI  -7
THOMPSON       PTCLDY    -9 -17  70 NW9       30.46S WCI -27
WINNIPEG       LGT SNOW  19  16  86 NW24G31   30.18R BLWGSNOWWCI   2
LYNN LAKE      CLOUDY   -11 -17  77 N9        30.52R WCI -29
CHURCHILL      SNOW       7   5  92 NW30G39   30.39S VSB 1/8 WCI -17
GILLAM         FLURRIES  -4  -8  84 NW15      30.36R WCI -25
$$
                ***SASKATCHEWAN***

CITY           SKY/WX    TMP DP  RH WIND       PRES   REMARKS
ESTEVAN        LGT SNOW   3   0  85 NW25G32   30.46R BLWGSNOWWCI -20
KINDERSLEY     PTCLDY    -9 -13  84 NW5       30.60R WCI -21
LLOYDMINSTER   PTCLDY    -8 -11  84 NW12G18   30.63R WCI -27
PRINCE ALBERT  FLURRIES   0  -8  71 NW10      30.59R WCI -17
REGINA         FLURRIES   1  -4  78 NW18      30.52R WCI -19
YORKTON        CLOUDY     9   3  78 NW15      30.42R WCC1F1C2F2C3F3C4F4C5F5C6F6C7F7C8F8C9F9CaFaCbFbCcFcCdFdCe!


USA.gov is the U.S. government's official web portal to all federal, state and local government web resources and services.